ROMMA est une association bénévole à but non lucratif. Votre soutien est indispensable : ADHERER à ROMMA ou FAIRE un DON

Le Versoud - (38, Isère)

Vallée du Grésivaudan (220 m)   Longitude: 05° 51' 44" E   Latitude: 45° 13' 06" N Station partenaire n°6
 

Détail journalier du     <<     >>

Température Humidité Pression Vent Dir Rafale Dir. rafale Ensol.
Heure (°C) (%) (hPa) (km/h) (km/h) (min)
01:00 15.791101100---0
02:00 15.594101200---0
03:00 15.494101203O0
04:00 15.394101300---0
05:00 15.295101300---0
06:00 15.095101300---0
07:00 14.895101300---0
08:00 14.795101500---0
09:00 14.795101600---0
10:00 15.095101600---0
11:00 15.093101702ONO0
12:00 15.194101808S0
13:00 15.493101800---0
14:00 14.995101905S0
15:00 14.795101900---0
16:00 14.494102005S0
17:00 14.594101900---0
18:00 14.294101900---0
19:00 13.895102000---0
20:00 13.695102002S0
21:00 13.495102105S0
22:00 13.295102000---0
23:00 13.196102100---0
minuit 13.196102100---0

Graphique du 21-10-2019

 

Serveur OMMA